Location: Downe
(51.3167°N, 0.0500°E)
Time: 21:30:18
(UTC+00:00)

NOSS 3-3 (A) - Pass Details

Date: 17 November 2019
Orbit: 848 x 1364 km, 63.4° (Epoch: 05 December)

Event Time Altitude Azimuth Distance (km) Brightness Sun altitude
Exits shadow 04:51:47 21° 211° (SSW) 1,955 5.3 -22.8°
Maximum altitude 04:56:01 74° 130° (SE) 1,014 4.1 -22.2°
Drops below altitude 10° 05:02:47 10° 46° (NE) 2,912 7.0 -21.1°
Sets 05:05:37 0° 45° (NE) 3,952 7.8 -20.7°
